GPS BIIR-16M

Last updated on Sat Aug 15 2026 00:02:48 GMT+0000 (Coordinated Universal Time)

1 29601U 06052A 26226.25448050 .00000022 00000+0 00000+0 0 9999 2 29601 54.9291 211.7051 0084894 91.0774 269.8739 2.00561289144576
UTC large
Height (km)
Speed (km/s)
/
Latitude / Longitude
Inclination (degrees)
Orbital Period (minutes)
Azimuth
Elevation
Range (km)
Doppler Factor

Next 0 passes for location: London (51.5072 / 0.1276)

No passes found over London.
GPS BIIR-16M